TimeEDT,TemperatureF,Dew PointF,Humidity,Sea Level PressureIn,VisibilityMPH,Wind Direction,Wind SpeedMPH,Gust SpeedMPH,PrecipitationIn,Events,Conditions,WindDirDegrees,DateUTC
12:15 AM,73.0,64.4,74,30.02,10.0,South,4.6,-,N/A,,Clear,180,2013-05-11 04:15:00
12:35 AM,70.7,62.6,75,30.01,10.0,South,4.6,-,N/A,,Clear,180,2013-05-11 04:35:00
12:55 AM,70.7,62.6,75,30.01,10.0,South,4.6,-,N/A,,Clear,170,2013-05-11 04:55:00
1:15 AM,72.5,64.0,75,30.01,10.0,South,8.1,-,N/A,,Clear,190,2013-05-11 05:15:00
1:35 AM,73.0,63.9,73,30.01,10.0,South,8.1,16.1,N/A,,Clear,190,2013-05-11 05:35:00
1:55 AM,73.0,64.4,74,30.00,10.0,SSW,9.2,-,N/A,,Clear,200,2013-05-11 05:55:00
2:15 AM,71.8,63.3,75,29.99,10.0,South,4.6,-,N/A,,Clear,180,2013-05-11 06:15:00
2:35 AM,70.7,62.2,75,29.98,10.0,South,6.9,-,N/A,,Clear,180,2013-05-11 06:35:00
2:55 AM,70.7,62.6,75,29.99,10.0,South,6.9,-,N/A,,Clear,190,2013-05-11 06:55:00
3:15 AM,70.7,62.6,75,29.99,10.0,South,6.9,-,N/A,,Clear,180,2013-05-11 07:15:00
3:35 AM,70.7,62.6,75,29.98,10.0,SSW,6.9,-,N/A,,Clear,200,2013-05-11 07:35:00
3:55 AM,70.7,62.6,75,29.99,10.0,SSW,6.9,-,N/A,,Clear,210,2013-05-11 07:55:00
4:15 AM,70.7,62.6,75,29.98,10.0,SSW,6.9,-,N/A,,Clear,200,2013-05-11 08:15:00
4:35 AM,70.7,63.0,76,29.98,10.0,SSW,5.8,-,N/A,,Clear,200,2013-05-11 08:35:00
4:55 AM,70.7,63.5,78,29.97,10.0,South,6.9,-,N/A,,Clear,190,2013-05-11 08:55:00
5:15 AM,69.4,63.0,80,29.97,10.0,South,5.8,-,N/A,,Clear,190,2013-05-11 09:15:00
5:35 AM,69.6,63.1,80,29.98,10.0,SSW,5.8,-,N/A,,Clear,200,2013-05-11 09:35:00
5:55 AM,68.2,61.7,80,29.98,10.0,South,4.6,-,N/A,,Clear,190,2013-05-11 09:55:00
6:35 AM,68.0,61.7,80,29.99,10.0,South,4.6,-,N/A,,Clear,190,2013-05-11 10:35:00
6:55 AM,68.0,61.7,80,29.99,10.0,SSW,4.6,-,N/A,,Clear,200,2013-05-11 10:55:00
7:15 AM,68.0,61.7,80,29.98,10.0,South,6.9,-,N/A,,Clear,190,2013-05-11 11:15:00
7:35 AM,70.2,63.7,80,29.98,10.0,SSW,5.8,-,N/A,,Clear,200,2013-05-11 11:35:00
7:55 AM,73.0,66.4,80,29.98,10.0,SSW,6.9,-,N/A,,Clear,200,2013-05-11 11:55:00
8:15 AM,73.0,66.4,80,29.98,10.0,SSW,10.4,-,N/A,,Clear,200,2013-05-11 12:15:00
8:35 AM,73.0,66.2,79,29.97,10.0,SW,9.2,-,N/A,,Clear,220,2013-05-11 12:35:00
8:55 AM,73.2,66.2,79,29.97,10.0,SSW,9.2,18.4,N/A,,Clear,200,2013-05-11 12:55:00
9:15 AM,74.7,67.3,78,29.96,10.0,SW,12.7,17.3,N/A,,Clear,220,2013-05-11 13:15:00
9:35 AM,78.1,69.3,74,29.95,10.0,SW,13.8,21.9,N/A,,Clear,220,2013-05-11 13:35:00
9:55 AM,78.1,68.2,71,29.95,10.0,SSW,15.0,20.7,N/A,,Clear,210,2013-05-11 13:55:00
10:15 AM,78.1,67.8,71,29.95,10.0,SW,18.4,25.3,N/A,,Scattered Clouds,220,2013-05-11 14:15:00
10:35 AM,78.1,67.3,69,29.94,10.0,SSW,12.7,-,N/A,,Scattered Clouds,200,2013-05-11 14:35:00
10:55 AM,80.6,68.7,67,29.94,10.0,SSW,13.8,20.7,N/A,,Scattered Clouds,210,2013-05-11 14:55:00
11:15 AM,80.8,68.2,65,29.93,10.0,SSW,13.8,18.4,N/A,,Scattered Clouds,210,2013-05-11 15:15:00
11:35 AM,80.8,68.0,65,29.92,10.0,SSW,15.0,25.3,N/A,,Scattered Clouds,210,2013-05-11 15:35:00
12:15 PM,80.8,67.1,63,29.91,10.0,SW,18.4,23.0,N/A,,Scattered Clouds,230,2013-05-11 16:15:00
12:35 PM,82.0,66.4,59,29.90,10.0,SW,13.8,25.3,N/A,,Scattered Clouds,220,2013-05-11 16:35:00
12:55 PM,81.1,64.6,57,29.90,10.0,SW,13.8,23.0,N/A,,Scattered Clouds,220,2013-05-11 16:55:00
1:15 PM,83.3,66.4,57,29.88,10.0,WSW,15.0,-,N/A,,Scattered Clouds,240,2013-05-11 17:15:00
1:35 PM,83.3,64.0,52,29.88,10.0,WSW,16.1,20.7,N/A,,Scattered Clouds,240,2013-05-11 17:35:00
1:55 PM,81.3,63.0,54,29.88,10.0,SW,19.6,-,N/A,,Clear,230,2013-05-11 17:55:00
2:15 PM,78.1,61.9,57,29.87,10.0,SW,15.0,20.7,N/A,,Clear,220,2013-05-11 18:15:00
2:35 PM,79.3,66.0,64,29.88,10.0,South,9.2,-,N/A,,Clear,170,2013-05-11 18:35:00
2:55 PM,78.1,67.6,70,29.87,10.0,South,10.4,19.6,N/A,,Scattered Clouds,180,2013-05-11 18:55:00
3:35 PM,79.3,66.7,65,29.83,10.0,South,10.4,18.4,N/A,,Clear,170,2013-05-11 19:35:00
3:55 PM,80.8,67.8,65,29.82,10.0,South,10.4,-,N/A,,Clear,180,2013-05-11 19:55:00
4:15 PM,81.1,65.3,58,29.82,10.0,South,12.7,21.9,N/A,,Clear,170,2013-05-11 20:15:00
4:35 PM,83.3,66.2,56,29.82,10.0,SSW,8.1,16.1,N/A,,Clear,200,2013-05-11 20:35:00
4:55 PM,82.8,66.6,58,29.81,10.0,SSW,10.4,16.1,N/A,,Clear,200,2013-05-11 20:55:00
5:15 PM,82.9,66.2,57,29.81,10.0,South,10.4,-,N/A,,Clear,180,2013-05-11 21:15:00
5:35 PM,81.1,67.3,63,29.81,10.0,South,13.8,17.3,N/A,,Clear,170,2013-05-11 21:35:00
5:55 PM,80.8,68.4,66,29.81,10.0,SSE,11.5,16.1,N/A,,Clear,160,2013-05-11 21:55:00
6:15 PM,80.8,69.8,69,29.81,10.0,South,6.9,-,N/A,,Clear,180,2013-05-11 22:15:00
6:35 PM,80.8,69.1,67,29.81,10.0,South,8.1,-,N/A,,Clear,170,2013-05-11 22:35:00
6:55 PM,80.8,68.7,67,29.81,10.0,South,8.1,-,N/A,,Clear,190,2013-05-11 22:55:00
7:15 PM,78.3,66.6,67,29.81,10.0,South,8.1,-,N/A,,Clear,180,2013-05-11 23:15:00
7:35 PM,78.1,66.7,68,29.81,10.0,South,10.4,-,N/A,,Clear,180,2013-05-11 23:35:00
7:55 PM,78.1,67.3,69,29.81,10.0,South,6.9,-,N/A,,Clear,170,2013-05-11 23:55:00
8:15 PM,78.1,66.9,68,29.82,10.0,SSE,6.9,-,N/A,,Clear,160,2013-05-12 00:15:00
8:35 PM,78.1,66.6,68,29.82,10.0,South,5.8,-,N/A,,Clear,170,2013-05-12 00:35:00
8:55 PM,75.6,63.7,66,29.83,10.0,South,6.9,-,N/A,,Clear,190,2013-05-12 00:55:00
9:15 PM,74.3,62.6,67,29.83,10.0,South,8.1,-,N/A,,Clear,190,2013-05-12 01:15:00
9:35 PM,74.1,62.8,68,29.83,10.0,SSW,6.9,-,N/A,,Clear,200,2013-05-12 01:35:00
9:55 PM,73.4,62.2,68,29.84,10.0,SSW,6.9,-,N/A,,Clear,200,2013-05-12 01:55:00
10:15 PM,73.0,62.6,70,29.84,10.0,South,8.1,-,N/A,,Clear,190,2013-05-12 02:15:00
10:35 PM,73.0,62.6,70,29.84,10.0,SSW,8.1,-,N/A,,Clear,200,2013-05-12 02:35:00
10:55 PM,73.0,62.6,70,29.84,10.0,SSW,8.1,-,N/A,,Scattered Clouds,200,2013-05-12 02:55:00
11:15 PM,73.0,63.0,71,29.84,10.0,SSW,8.1,-,N/A,,Scattered Clouds,200,2013-05-12 03:15:00
11:35 PM,73.0,63.5,72,29.83,10.0,South,6.9,-,N/A,,Clear,180,2013-05-12 03:35:00
11:55 PM,73.0,63.9,73,29.83,10.0,South,6.9,-,N/A,,Scattered Clouds,180,2013-05-12 03:55:00